Sella Ronda, Italy 16 day weather forecast

Slopes altitude range 1005 m - 3250m

Number of lifts: 179 Pistes: 433km

In some cases the lift and piste totals shown are for the ski domain (e.g. Three Valleys) rather than individual resort (e.g. Courchevel)

Overview

The 16 day weather forecast is fully updated 4 times every day.

    • Wed 26 JUN 2019
    • Wed 26
    • 19C 29C
    • Thu 27 JUN 2019
    • Thu 27
    • 21C 31C
    • Fri 28 JUN 2019
    • Fri 28
    • 19C 28C
    • Sat 29 JUN 2019
    • Sat 29
    • 16C 22C
    • Sun 30 JUN 2019
    • Sun 30
    • 17C 26C
    • Mon 01 JUL 2019
    • Mon 01
    • 19C 27C
    • Tue 02 JUL 2019
    • Tue 02
    • 16C 24C
    • Wed 03 JUL 2019
    • Wed 03
    • 15C 20C
    • Thu 04 JUL 2019
    • Thu 04
    • 12C 16C
    • Fri 05 JUL 2019
    • Fri 05
    • 13C 17C
    • Sat 06 JUL 2019
    • Sat 06
    • 6C 9C
    • Sun 07 JUL 2019
    • Sun 07
    • 8C 15C
    • Mon 08 JUL 2019
    • Mon 08
    • 13C 19C
    • Tue 09 JUL 2019
    • Tue 09
    • 14C 16C
    • Wed 10 JUL 2019
    • Wed 10
    • 12C 16C
    • Thu 11 JUL 2019
    • Thu 11
    • 12C 17C

Date:

Time Type 0°C level Temp Chill Snow Cloud Speed Gust Dir Press
3:00 4639m 13°C 13_5 0cm 0% 5mph 5mph 1025mB
6:00 4635m 12°C 12_2 0cm 1% 2mph 2mph 1026mB
9:00 4620m 19°C 19_4 0cm 0% 4mph 2mph 1025mB
12:00 4613m 29°C 29_5 0cm 0% 5mph 4mph 1024mB
15:00 4581m 29°C 29_5 0cm 0% 5mph 4mph 1023mB
18:00 4578m 29°C 29_2 0cm 6% 2mph 3mph 1024mB
21:00 4575m 16°C 16_5 0cm 2% 5mph 6mph 1026mB
0:00 4582m 15°C 15_6 0cm 1% 6mph 6mph 1026mB
3:00 4609m 15°C 15_7 0cm 0% 7mph 7mph 1024mB
6:00 4566m 15°C 15_3 0cm 0% 3mph 5mph 1023mB
9:00 4586m 21°C 21_3 0cm 0% 3mph 5mph 1022mB
12:00 4527m 31°C 31_4 0cm 0% 4mph 11mph 1021mB
15:00 4531m 31°C 31_5 0cm 0% 5mph 10mph 1020mB
18:00 4618m 31°C 31_4 0cm 6% 4mph 5mph 1019mB
21:00 4668m 18°C 18_8 0cm 19% 8mph 7mph 1021mB
0:00 4729m 16°C 16_7 0cm 9% 7mph 7mph 1020mB
3:00 4658m 15°C 15_7 0cm 0% 7mph 7mph 1020mB
6:00 4659m 14°C 14_4 0cm 0% 4mph 6mph 1019mB
9:00 4675m 19°C 19_3 0cm 0% 3mph 6mph 1019mB
12:00 4456m 28°C 28_5 0cm 0% 5mph 7mph 1017mB
15:00 4425m 28°C 28_5 0cm 0% 5mph 7mph 1017mB
18:00 4706m 28°C 28_2 0cm 0% 2mph 3mph 1018mB
21:00 4695m 15°C 15_5 0cm 0% 5mph 5mph 1020mB
0:00 4731m 13°C 13_3 0cm 0% 3mph 4mph 1020mB
3:00 4696m 12°C 12_2 0cm 8% 2mph 3mph 1020mB
6:00 4729m 12°C 12_2 0cm 41% 2mph 2mph 1020mB
9:00 4796m 16°C 16_5 0cm 53% 5mph 3mph 1019mB
12:00 4814m 22°C 22_5 0cm 52% 5mph 4mph 1018mB
15:00 4831m 24°C 24_6 0cm 32% 6mph 5mph 1018mB
18:00 4874m 24°C 24_4 0cm 34% 4mph 7mph 1019mB
21:00 4959m 14°C 14_1 0cm 36% 1mph 1mph 1021mB
0:00 4879m 14°C 14_1 0cm 48% 1mph 1mph 1021mB
3:00 4784m 13°C 13_1 0cm 63% 1mph 1mph 1020mB
6:00 4763m 13°C 13_2 0cm 56% 2mph 2mph 1020mB
9:00 4699m 17°C 17_5 0cm 24% 5mph 3mph 1020mB
12:00 4641m 26°C 26_6 0cm 24% 6mph 4mph 1019mB
15:00 4533m 27°C 27_6 0cm 42% 6mph 5mph 1019mB
18:00 4504m 27°C 27_2 0cm 38% 2mph 3mph 1020mB
21:00 4563m 15°C 15_4 0cm 0% 4mph 5mph 1022mB
0:00 4562m 13°C 13_5 0cm 1% 5mph 5mph 1022mB
3:00 4514m 13°C 13_5 0cm 0% 5mph 5mph 1020mB
6:00 4476m 13°C 13_0 0cm 0% 0mph 2mph 1020mB
9:00 4449m 19°C 19_5 0cm 0% 5mph 3mph 1019mB
12:00 4424m 27°C 27_5 0cm 0% 5mph 5mph 1017mB
15:00 4372m 27°C 27_2 0cm 76% 2mph 5mph 1016mB
18:00 4247m 27°C 27_3 0cm 88% 3mph 4mph 1019mB
21:00 4163m 13°C 13_4 0cm 100% 4mph 5mph 1020mB
0:00 4211m 12°C 12_4 0cm 100% 4mph 4mph 1019mB
3:00 4189m 11°C 11_3 0cm 100% 3mph 4mph 1018mB
6:00 4181m 11°C 11_2 0cm 99% 2mph 4mph 1017mB
9:00 4191m 16°C 16_4 0cm 92% 4mph 3mph 1017mB
12:00 4149m 24°C 24_5 0cm 96% 5mph 5mph 1016mB
15:00 4209m 22°C 22_2 0cm 93% 2mph 3mph 1016mB
18:00 4095m 22°C 22_3 0cm 90% 3mph 3mph 1017mB
21:00 4132m 13°C 13_2 0cm 100% 2mph 3mph 1018mB
0:00 4114m 11°C 11_3 0cm 95% 3mph 4mph 1018mB
3:00 4054m 11°C 11_2 0cm 99% 2mph 3mph 1018mB
6:00 3976m 11°C 11_1 0cm 99% 1mph 1mph 1018mB
9:00 4082m 15°C 15_4 0cm 100% 4mph 4mph 1018mB
12:00 4014m 20°C 20_3 0cm 100% 3mph 4mph 1018mB
15:00 3914m 13°C 13_2 0cm 99% 2mph 2mph 1018mB
18:00 4032m 13°C 13_2 0cm 88% 2mph 2mph 1018mB
21:00 4069m 4°C 4_5 0cm 74% 5mph 6mph 1020mB
0:00 4098m 4°C 4_4 0cm 76% 4mph 5mph 1019mB
3:00 4013m 4°C 4_2 0cm 95% 2mph 3mph 1018mB
6:00 3969m 3°C 3_1 0cm 74% 1mph 1mph 1018mB
9:00 3938m 12°C 12_4 0cm 52% 4mph 3mph 1017mB
12:00 4023m 16°C 16_3 0cm 52% 3mph 4mph 1016mB
15:00 4057m 15°C 15_2 0cm 88% 2mph 4mph 1016mB
18:00 4025m 15°C 15_1 0cm 91% 1mph 2mph 1017mB
21:00 4118m 6°C 6_1 0cm 98% 1mph 2mph 1018mB
0:00 3994m 6°C 6_5 0cm 75% 5mph 6mph 1018mB
3:00 3988m 4°C 4_3 0cm 0% 3mph 4mph 1018mB
6:00 3984m 4°C 4_2 0cm 12% 2mph 2mph 1017mB
9:00 3986m 13°C 13_3 0cm 91% 3mph 8mph 1017mB
12:00 4065m 17°C 17_2 0cm 91% 2mph 4mph 1016mB
15:00 4116m 16°C 16_3 0cm 99% 3mph 5mph 1016mB
18:00 4009m 16°C 16_7 0cm 94% 7mph 7mph 1017mB
21:00 4073m 8°C 8_6 0cm 100% 6mph 7mph 1019mB
0:00 3964m 7°C 7_5 0cm 100% 5mph 6mph 1019mB
Afternoon 0.333333mm 0.875 3596m 9°C 9_8 0cm 85% 8mph 8mph 1019mB
Morning 0mm 0 2334m -2°C -2_2 0cm 38% 2mph 3mph 1024mB
Afternoon 0mm 0 3957m 15°C 15_5 0cm 0% 5mph 5mph 1020mB
Morning 0mm 0 4330m 2°C 2_3 0cm 13% 3mph 3mph 1021mB
Afternoon 0mm 0 4223m 19°C 19_6 0cm 57% 6mph 14mph 1017mB
Morning 0.0833333mm 0.25 4242m 7°C 7_3 0cm 100% 3mph 4mph 1019mB
Afternoon 0.5625mm 1.6875 4277m 16°C 16_4 0cm 86% 4mph 4mph 1017mB
Morning 0.1875mm 0.5625 4134m 6°C 6_2 0cm 97% 2mph 3mph 1019mB
Afternoon 0.645833mm 1.875 4086m 16°C 16_9 0cm 50% 9mph 9mph 1016mB
Morning 0mm 0 4008m 5°C 5_2 0cm 77% 2mph 3mph 1017mB
Afternoon 0.166667mm 0.5 4068m 17°C 17_3 0cm 32% 3mph 4mph 1012mB
Morning 0.1875mm 0.5 3917m 7°C 7_3 0cm 91% 3mph 4mph 1010mB

16 day outlook at a glance

Forecast issued: 6/26/2019 8:09:43 AM

Chat

Your comments and questions. In a resort? Let us know what it's like!


Characters left 250

For terms and conditions see Readers Comments on the Cookie and privacy policy page.